[[{"header":{"parameterUnit":"m.s-1","parameterCategory":1,"la1":30.2991,"la2":30.254,"lo1":-89.0895,"lo2":-89.0444,"dy":0.0017,"dx":0.0017,"nx":28,"ny":28,"refTime":"2024-09-04T09:00:00:Z","depth":0,"parameterNumber":2,"parameterNumberName":"U-component_of_WINDS"},"data":[0,0,0,0,0,0,0,0,0,0,0,0,0,0,0,0,0,0,0,0,0,0,0,0,0,0,0,0,0,0,0,0,0,0,0,0,0,0,0,0,0,0,0,0,0,0,0,0,0,0,0,0,0,0,0,0,0,0,-6.529,-6.529,0,-6.5336,-6.5336,-6.5337,-6.5144,-6.5138,-6.5133,-6.5127,-6.5177,-6.5183,-6.519,0,0,0,0,0,0,0,0,0,0,0,0,0,-6.5037,-6.5043,-6.5289,-6.529,-6.5291,-6.5336,-6.5336,-6.5337,-6.5145,-6.5138,-6.5131,-6.5125,-6.5175,-6.5182,-6.519,0,0,0,0,0,0,0,0,0,0,0,0,0,-6.5121,-6.5044,-6.5289,-6.52,-6.5193,-6.5335,-6.5336,-6.5337,-6.5146,-6.5138,-6.5129,-6.5121,-6.5172,-6.5182,-6.5191,-6.5423,0,0,-6.5222,-6.5226,0,0,0,0,0,0,0,0,-6.5117,-6.5131,-6.5213,-6.5207,-6.5198,-6.5225,-6.5265,-6.5366,-6.5149,-6.5164,-6.5127,-6.5117,-6.52,-6.5207,-6.5234,-6.5425,-6.5427,-6.5223,-6.5229,-6.5233,-6.5236,0,0,0,0,0,0,0,-6.5111,-6.5128,-6.5308,-6.5214,-6.5206,-6.5159,-6.5161,-6.5283,-6.5229,-6.5162,-6.5148,-6.5156,-6.5194,-6.5225,-6.5234,-6.5428,-6.5222,-6.5231,-6.5237,-6.5241,-6.5811,-6.582,0,0,0,0,0,0,-6.5117,-6.5124,-6.5306,-6.5309,-6.5136,-6.517,-6.5173,-6.5225,-6.5227,-6.5219,-6.5163,-6.5147,-6.5213,-6.5223,-6.5235,-6.5506,-6.5233,-6.5242,-6.5248,-6.5802,-6.5813,-6.5823,0,0,0,0,0,0,-6.5112,-6.5135,-6.5304,-6.5213,-6.5231,-6.5183,-6.5244,-6.5231,-6.5261,-6.5228,-6.5218,-6.5205,-6.5206,-6.5221,-6.5377,-6.5505,-6.5247,-6.5256,-6.5791,-6.5805,-6.5818,-6.605,0,0,0,0,0,0,-6.5106,-6.5134,-6.5222,-6.5216,-6.5237,-6.5446,-6.5252,-6.5238,-6.5279,-6.5258,-6.5264,-6.5257,-6.5201,-6.5364,-6.5387,-6.5514,-6.5263,-6.5779,-6.5797,-6.5813,-6.6031,-6.607,-6.6104,0,0,0,0,0,-6.5097,-6.5286,-6.5227,-6.525,-6.5344,-6.5454,-6.5465,-6.5396,-6.529,-6.5377,-6.5356,-6.5257,-6.5487,-6.5381,-6.5406,-6.5538,-6.5771,-6.5792,-6.5812,-6.6015,-6.6063,-6.6103,0,0,0,0,0,0,-6.5308,-6.5283,-6.5218,-6.541,-6.5435,-6.5421,-6.5529,-6.5449,-6.5505,-6.5483,-6.5395,-6.5398,-6.557,-6.5569,-6.5452,-6.5762,-6.5611,-6.5638,-6.5756,-6.5802,-6.5837,-6.5834,-6.5271,0,0,0,0,0,-6.5376,-6.5467,-6.544,-6.5612,-6.5628,-6.5578,-6.5622,-6.5566,-6.559,-6.56,-6.5589,-6.5617,-6.5694,-6.5748,-6.5818,-6.603,-6.6029,-6.6133,-6.6169,-6.62,-6.6224,-6.6336,-6.6382,-6.5891,-6.5891,-6.589,0,0,-6.5519,-6.5517,-6.5579,-6.5655,-6.5668,-6.5764,-6.5588,-6.5697,-6.5767,-6.5616,-6.5763,-6.5757,-6.5781,-6.5966,-6.6047,-6.5971,-6.6359,-6.6226,-6.625,-6.6258,-6.6362,-6.6409,-6.645,-6.5905,-6.5902,-6.59,0,0,-6.5828,-6.5836,-6.5979,-6.5996,-6.6018,-6.5983,-6.6018,-6.6016,-6.6006,-6.6152,-6.604,-6.6124,-6.626,-6.6282,-6.6311,-6.6629,-6.6541,-6.6655,-6.6845,-6.6956,-6.6995,-6.7029,-6.7143,-6.7185,-6.6679,-6.6679,-6.668,0,-6.6003,-6.6143,-6.6064,-6.6181,-6.6217,-6.6084,-6.623,-6.625,-6.6295,-6.6324,-6.6237,-6.6406,-6.6412,-6.6601,-6.6679,-6.6707,-6.6744,-6.6653,-6.6995,-6.7029,-6.7059,-6.7167,-6.721,-6.6693,-6.6692,-6.669,-6.6689,0,-6.6357,-6.6456,-6.6569,-6.6615,-6.6664,-6.6796,-6.6737,-6.6797,-6.6737,-6.6711,-6.6862,-6.6865,-6.6934,-6.6974,-6.6917,-6.7156,-6.7108,-6.701,-6.6856,-6.7121,-6.7221,-6.7261,-6.6713,-6.6708,-6.6704,-6.67,0,0,-6.6799,-6.68,-6.6843,-6.6862,-6.6877,-6.6952,-6.7077,-6.7144,-6.7197,-6.7232,-6.7335,-6.7454,-6.7364,-6.7397,-6.7341,-6.7439,-6.7691,-6.7328,-6.7328,-6.7396,-6.7954,-6.8028,-6.8077,-6.7632,-6.764,-6.7646,-6.7952,0,-6.7103,-6.7315,-6.7249,-6.7464,-6.7555,-6.743,-6.7539,-6.7561,-6.754,-6.7614,-6.7591,-6.7677,-6.7551,-6.7571,-6.7661,-6.7641,-6.7802,-6.7618,-6.7728,-6.7733,-6.7726,-6.8129,-6.8207,-6.8496,-6.7991,-6.7997,-6.8002,0,-6.7485,-6.7535,-6.776,-6.7759,-6.7795,-6.7894,-6.7949,-6.8022,-6.8044,-6.8022,-6.806,-6.7984,-6.8107,-6.7954,-6.8123,-6.7999,-6.804,-6.8038,-6.8047,-6.8054,-6.7884,-6.8148,-6.8586,-6.863,-6.8063,-6.8058,-6.8053,0,-6.7785,-6.7909,-6.8059,-6.8079,-6.8083,-6.8156,-6.8161,-6.8174,-6.8218,-6.8267,-6.8295,-6.8359,-6.8394,-6.8445,-6.8389,-6.8282,-6.8567,-6.8408,-6.8553,-6.8555,-6.8618,-6.8615,-6.907,-6.8645,-6.8645,-6.8644,-6.8643,0,-6.8131,-6.8274,-6.8194,-6.8287,-6.8443,-6.8365,-6.8522,-6.8513,-6.8526,-6.8615,-6.8511,-6.8597,-6.8517,-6.8597,-6.8553,-6.87,-6.8717,-6.8703,-6.869,-6.8713,-6.8715,-6.8738,-6.8717,-6.8655,-6.8653,-6.865,-6.8649,0,-6.8493,-6.8446,-6.8601,-6.8592,-6.8593,-6.8709,-6.87,-6.8786,-6.8758,-6.8872,-6.8894,-6.8851,-6.8939,-6.8888,-6.8977,-6.8948,-6.914,-6.9099,-6.9132,-6.9121,-6.9269,-6.9256,-6.9755,-6.9817,-6.9353,-6.9358,-6.9361,0,-6.8717,-6.8823,-6.8825,-6.8877,-6.8889,-6.8974,-6.9019,-6.8946,-6.8997,-6.9031,-6.9113,-6.9191,-6.925,-6.9397,-6.9374,-6.9442,-6.9402,-6.9572,-6.9412,-6.9431,-6.9405,-6.9399,-6.941,-6.9605,-6.961,-6.9615,-6.9618,0,-6.9119,-6.909,-6.9158,-6.9219,-6.9275,-6.932,-6.9356,-6.9404,-6.9332,-6.9395,-6.9483,-6.9529,-6.9621,-6.97,-6.9759,-6.9764,-6.9681,-6.9669,-6.9706,-6.973,-6.9745,-6.9739,-6.9221,-6.9658,-6.9654,-6.9651,-6.9649,-6.9647,-6.9418,-6.9507,-6.9523,-6.9602,-6.9621,-6.9658,-6.9738,-6.972,-6.9792,-6.986,-6.9813,-6.9918,-6.9937,-7.0007,-7.0023,-7.0104,-7.0036,-7.009,-7.0103,-7.0118,-7.0138,-6.9733,-7.0115,-7.0113,-7.0112,-7.0111,-7.011,0,-6.9815,-6.9819,-6.9893,-6.9946,-7.0009,-6.9924,-6.9959,-7.0018,-7.0111,-7.0136,-7.0196,-7.0298,-7.0375,-7.0359,-7.0428,-7.0496,-7.046,-7.0517,-7.0511,-7.0514,-7.0195,-7.0156,-7.0546,-7.0546,-7.0545,-7.0545,-7.0545,-7.0545,-7.0028,-7.0175,-7.0148,-7.0303,-7.0306,-7.0407,-7.0435,-7.0468,-7.0487,-7.0605,-7.0669,-7.0657,-7.0666,-7.0735,-7.0802,-7.0795,-7.0826,-7.0898,-7.0877,-7.058,-7.0537,-7.0495,-7.0458,-7.0905,-7.0905,-7.1189,-7.1192,-7.1194]},{"header":{"parameterUnit":"m.s-1","parameterCategory":1,"la1":30.2991,"la2":30.254,"lo1":-89.0895,"lo2":-89.0444,"dy":0.0017,"dx":0.0017,"nx":28,"ny":28,"refTime":"2024-09-04T09:00:00:Z","depth":0,"parameterNumber":3,"parameterNumberName":"V-component_of_WINDS"},"data":[0,0,0,0,0,0,0,0,0,0,0,0,0,0,0,0,0,0,0,0,0,0,0,0,0,0,0,0,0,0,0,0,0,0,0,0,0,0,0,0,0,0,0,0,0,0,0,0,0,0,0,0,0,0,0,0,0,0,-0.8699,-0.8699,0,-0.8731,-0.8731,-0.8732,-0.8784,-0.8785,-0.8786,-0.8787,-0.8818,-0.8818,-0.8818,0,0,0,0,0,0,0,0,0,0,0,0,0,-0.8679,-0.8679,-0.8699,-0.8699,-0.87,-0.8731,-0.8731,-0.8732,-0.8784,-0.8785,-0.8786,-0.8787,-0.8818,-0.8818,-0.8818,0,0,0,0,0,0,0,0,0,0,0,0,0,-0.8697,-0.8679,-0.8699,-0.8729,-0.8733,-0.8731,-0.8731,-0.8732,-0.8784,-0.8785,-0.8787,-0.8788,-0.8818,-0.8818,-0.8818,-0.8788,0,0,-0.8817,-0.8817,0,0,0,0,0,0,0,0,-0.8696,-0.8698,-0.8724,-0.8727,-0.8731,-0.8755,-0.8736,-0.8751,-0.8783,-0.8764,-0.8787,-0.8789,-0.8796,-0.8797,-0.88,-0.8789,-0.879,-0.8817,-0.8817,-0.8817,-0.8817,0,0,0,0,0,0,0,-0.8695,-0.8697,-0.8711,-0.8725,-0.8729,-0.8741,-0.8745,-0.8739,-0.8771,-0.8766,-0.877,-0.8773,-0.8798,-0.88,-0.8801,-0.8791,-0.8817,-0.8817,-0.8817,-0.8817,-0.8755,-0.8753,0,0,0,0,0,0,-0.8689,-0.8695,-0.871,-0.8712,-0.8717,-0.874,-0.8744,-0.8746,-0.8772,-0.8777,-0.8772,-0.8775,-0.88,-0.8801,-0.8802,-0.8768,-0.8817,-0.8817,-0.8817,-0.8756,-0.8755,-0.8753,0,0,0,0,0,0,-0.8689,-0.869,-0.8709,-0.8705,-0.8708,-0.8739,-0.874,-0.8746,-0.8748,-0.8776,-0.8782,-0.8769,-0.8801,-0.8803,-0.8791,-0.8769,-0.8817,-0.8817,-0.8758,-0.8756,-0.8754,-0.8698,0,0,0,0,0,0,-0.8688,-0.869,-0.8679,-0.8704,-0.8708,-0.8697,-0.8738,-0.8745,-0.8748,-0.8753,-0.8775,-0.8779,-0.8802,-0.8791,-0.879,-0.877,-0.8817,-0.876,-0.8757,-0.8754,-0.8702,-0.8694,-0.8688,0,0,0,0,0,-0.8687,-0.8662,-0.8679,-0.868,-0.8696,-0.8696,-0.8698,-0.8726,-0.8746,-0.8736,-0.8753,-0.8779,-0.8772,-0.8789,-0.8789,-0.8768,-0.8762,-0.8758,-0.8755,-0.8705,-0.8696,-0.8688,0,0,0,0,0,0,-0.8634,-0.8666,-0.8685,-0.8668,-0.8679,-0.8705,-0.8692,-0.8715,-0.872,-0.8724,-0.8757,-0.8762,-0.8745,-0.8756,-0.8774,-0.874,-0.8771,-0.8767,-0.8733,-0.8724,-0.8717,-0.8714,-0.8816,0,0,0,0,0,-0.862,-0.8618,-0.8647,-0.8629,-0.8633,-0.8662,-0.8663,-0.8683,-0.8695,-0.87,-0.8717,-0.8727,-0.8728,-0.8727,-0.8729,-0.8705,-0.8709,-0.869,-0.8683,-0.8677,-0.8673,-0.8659,-0.865,-0.8741,-0.8741,-0.8741,0,0,-0.8591,-0.8609,-0.8606,-0.8618,-0.8629,-0.8625,-0.8665,-0.866,-0.8657,-0.8699,-0.8688,-0.8701,-0.8715,-0.8696,-0.8689,-0.8705,-0.8649,-0.8673,-0.8667,-0.8667,-0.8654,-0.8645,-0.8638,-0.8739,-0.8739,-0.874,0,0,-0.8537,-0.8551,-0.8536,-0.8547,-0.8563,-0.8582,-0.8578,-0.8601,-0.8611,-0.8601,-0.8633,-0.8629,-0.8629,-0.8637,-0.8641,-0.8589,-0.8612,-0.8589,-0.855,-0.8536,-0.8529,-0.8522,-0.8502,-0.8494,-0.8585,-0.8585,-0.8585,0,-0.8499,-0.8495,-0.8526,-0.8518,-0.8522,-0.8561,-0.8546,-0.8554,-0.8569,-0.8571,-0.8589,-0.8589,-0.8601,-0.8584,-0.8571,-0.8573,-0.8569,-0.8586,-0.8528,-0.8522,-0.8516,-0.8496,-0.8489,-0.8582,-0.8582,-0.8582,-0.8583,0,-0.8446,-0.8443,-0.8429,-0.8444,-0.8446,-0.8434,-0.8463,-0.8461,-0.8481,-0.8498,-0.8486,-0.8502,-0.8507,-0.8505,-0.8524,-0.8489,-0.8499,-0.8522,-0.8553,-0.8504,-0.8486,-0.8479,-0.8577,-0.8578,-0.8579,-0.858,0,0,-0.8358,-0.839,-0.8384,-0.839,-0.8411,-0.8408,-0.8398,-0.8403,-0.84,-0.841,-0.8401,-0.84,-0.8421,-0.8425,-0.8446,-0.8434,-0.8388,-0.8458,-0.8459,-0.8443,-0.8349,-0.8329,-0.832,-0.8405,-0.8403,-0.8402,-0.8347,0,-0.8306,-0.829,-0.8318,-0.8295,-0.8291,-0.8328,-0.8319,-0.833,-0.8345,-0.8343,-0.836,-0.8358,-0.8387,-0.839,-0.838,-0.8396,-0.8369,-0.8401,-0.8394,-0.8394,-0.8387,-0.8311,-0.8291,-0.8238,-0.834,-0.8339,-0.8338,0,-0.8243,-0.8249,-0.8226,-0.8247,-0.8246,-0.8238,-0.8244,-0.8242,-0.8255,-0.8267,-0.8271,-0.8296,-0.8286,-0.8317,-0.8303,-0.8323,-0.8322,-0.833,-0.8328,-0.8327,-0.8361,-0.8306,-0.8222,-0.8213,-0.8328,-0.8329,-0.8329,0,-0.8177,-0.8181,-0.8167,-0.8171,-0.8196,-0.8188,-0.8198,-0.8213,-0.8213,-0.8219,-0.8219,-0.8224,-0.8225,-0.8227,-0.8251,-0.8272,-0.8233,-0.8267,-0.824,-0.824,-0.8229,-0.8229,-0.8141,-0.8232,-0.8232,-0.8232,-0.8232,0,-0.8115,-0.8099,-0.8138,-0.8129,-0.8111,-0.8143,-0.8124,-0.8138,-0.815,-0.8143,-0.8176,-0.8169,-0.8203,-0.8199,-0.8218,-0.8202,-0.8203,-0.8211,-0.8215,-0.8206,-0.8205,-0.8205,-0.8208,-0.823,-0.8231,-0.8231,-0.8231,0,-0.8038,-0.8064,-0.8051,-0.8075,-0.8081,-0.8067,-0.8087,-0.8079,-0.8097,-0.8088,-0.8088,-0.8115,-0.8112,-0.8137,-0.8139,-0.8151,-0.8125,-0.8138,-0.8121,-0.8124,-0.8095,-0.8096,-0.8002,-0.7991,-0.8091,-0.809,-0.8089,0,-0.7996,-0.7984,-0.8007,-0.8005,-0.8014,-0.8011,-0.8012,-0.8042,-0.8042,-0.8055,-0.8045,-0.8045,-0.8046,-0.804,-0.8059,-0.806,-0.8071,-0.8038,-0.8071,-0.8062,-0.8068,-0.8067,-0.8065,-0.803,-0.8029,-0.8028,-0.8027,0,-0.7916,-0.7929,-0.793,-0.7935,-0.7935,-0.7941,-0.7948,-0.7944,-0.7977,-0.7975,-0.7973,-0.7974,-0.7975,-0.7974,-0.7979,-0.7988,-0.8012,-0.8017,-0.801,-0.8,-0.7989,-0.7992,-0.8099,-0.8018,-0.8019,-0.802,-0.802,-0.8021,-0.7854,-0.7845,-0.7859,-0.7858,-0.7867,-0.7873,-0.7866,-0.7883,-0.7882,-0.7886,-0.7904,-0.7898,-0.791,-0.7919,-0.7925,-0.792,-0.7936,-0.7927,-0.7924,-0.7921,-0.7915,-0.7992,-0.7921,-0.7922,-0.7922,-0.7922,-0.7922,0,-0.7774,-0.7785,-0.7784,-0.7793,-0.7792,-0.7817,-0.7826,-0.7823,-0.7817,-0.7827,-0.7827,-0.7824,-0.7823,-0.7842,-0.7843,-0.7835,-0.7845,-0.7834,-0.7833,-0.7834,-0.7902,-0.7906,-0.7825,-0.7825,-0.7825,-0.7825,-0.7825,-0.7825,-0.7732,-0.7717,-0.7732,-0.7721,-0.7732,-0.7727,-0.7729,-0.7734,-0.7742,-0.7736,-0.7736,-0.7749,-0.7761,-0.7763,-0.7763,-0.7768,-0.7766,-0.775,-0.7758,-0.7821,-0.783,-0.7839,-0.7843,-0.7749,-0.7749,-0.7691,-0.7691,-0.769]}]]